This demonstration page uses our WeatherBlox Daily Observations layout. Learn more.

Left ArrowRight Arrow

44.31136, -96.79839

Hourly Observations for July 8, 2022

Temp ( °F °C ) Dew Point ( °F °C ) Humidity (%) Winds ( mph kmh ) Pressure ( in mb ) Visibility ( mi km ) Precip ( " mm )
12:56 am 00:56 Cloudy 68 20 65 18.3 90 90 NNE 3 6 30.07 1018 10 16 0.00 0.00
1:56 am 01:56 Cloudy 67 19.4 66 18.9 97 97 Calm 30.07 1018 10 16 0.00 0.00
2:56 am 02:56 Mostly Cloudy 67 19.4 65 18.3 93 93 NNE 3 6 30.08 1019 10 16 0.00 0.00
3:56 am 03:56 Cloudy 66 18.9 65 18.3 96 96 N 5 7 30.08 1019 10 16 0.00 0.00
4:56 am 04:56 Clear 66 18.9 65 18.3 96 96 NNE 6 9 30.08 1019 10 16 0.00 0.00
5:30 am 05:30 Partly Cloudy 64 18 64 18 100 100 N 5 7 30.04 1017 10 16 0.00 0.00
5:46 am 05:46 Mostly Cloudy 66 19 64 18 94 94 N 6 9 30.03 1017 9 14 0.00 0.00
5:56 am 05:56 Partly Cloudy 65 18.3 65 18.3 100 100 N 6 9 30.10 1019 8 13 0.00 0.00
6:56 am 06:56 Sunny with Mist and Fog 68 20 67 19.4 96 96 NE 3 6 30.11 1020 6 10 0.00 0.00
7:27 am 07:27 Partly Cloudy 70 21 66 19 88 88 NE 6 9 30.05 1018 9 14 0.00 0.00
7:35 am 07:35 Mostly Cloudy 72 22 66 19 83 83 NE 6 9 30.05 1018 10 16 0.00 0.00
7:53 am 07:53 Partly Cloudy 73 23 66 19 78 78 NE 6 9 30.05 1018 10 16 0.00 0.00
7:56 am 07:56 Partly Cloudy 73 22.8 66 18.9 79 79 NNE 7 11 30.13 1020 10 16 0.00 0.00
8:20 am 08:20 Mostly Cloudy 72 22 66 19 83 83 NNE 8 13 30.06 1018 10 16 0.00 0.00
8:49 am 08:49 Partly Cloudy 75 24 64 18 69 69 NNE 9 15 30.06 1018 10 16 0.00 0.00
8:56 am 08:56 Mostly Sunny 74 23.3 64 17.8 71 71 NNE 10 17 30.14 1021 10 16 0.00 0.00
9:56 am 09:56 Mostly Sunny 78 25.6 64 17.8 62 62 NE 8 13 30.14 1021 10 16 0.00 0.00
10:56 am 10:56 Partly Cloudy 78 25.6 64 17.8 62 62 N 8 13 30.16 1021 10 16 0.00 0.00
11:56 am 11:56 Sunny 81 27.2 65 18.3 58 58 NE 9 15 30.16 1021 10 16 0.00 0.00
12:56 pm 12:56 Partly Cloudy 84 28.9 64 17.8 51 51 NNE 14 22 30.16 1021 10 16 0.00 0.00
1:56 pm 13:56 Sunny 83 28.3 61 16.1 48 48 VRB 7 11 30.16 1021 10 16 0.00 0.00
2:56 pm 14:56 Sunny 85 29.4 60 15.6 43 43 VRB 6 9 30.16 1021 10 16 0.00 0.00
3:56 pm 15:56 Sunny 86 30 61 16.1 43 43 N 8 13 30.16 1021 10 16 0.00 0.00
4:56 pm 16:56 Sunny 85 29.4 62 16.7 46 46 N 6 9 30.16 1021 10 16 0.00 0.00
5:56 pm 17:56 Sunny 86 30 62 16.7 45 45 N 8 13 30.16 1021 10 16 0.00 0.00
6:56 pm 18:56 Sunny 85 29.4 62 16.7 46 46 NNE 9 15 30.15 1021 10 16 0.00 0.00
7:56 pm 19:56 Sunny 80 26.7 62 16.7 54 54 NE 8 13 30.15 1021 10 16 0.00 0.00
8:56 pm 20:56 Sunny 77 25 63 17.2 62 62 NE 3 6 30.15 1021 10 16 0.00 0.00
9:56 pm 21:56 Clear 71 21.7 63 17.2 76 76 Calm 30.19 1022 10 16 0.00 0.00
10:56 pm 22:56 Clear 68 20 64 17.8 87 87 Calm 30.20 1023 10 16 0.00 0.00
11:56 pm 23:56 Clear 67 19.4 64 17.8 91 91 ENE 3 6 30.20 1023 10 16 0.00 0.00

Powered by AerisWeather